WetterOnline ( https://www.wetteronline.ch )

Wetter aktuell Pforzheim

Aktuelles Wetter: Mühlacker (245m)

6-stündlich | Neueste Meldungen
Ortszeit Temperatur Wetter
Mi, 24.04. 2:00 6.8° C wolkenlos
Di, 23.04. 20:00 19.6° C leicht bewölkt
Di, 23.04. 14:00 19.7° C bewölkt
Di, 23.04. 8:00 12.2° C wolkenlos
Di, 23.04. 2:00 15.1° C wolkig
Mo, 22.04. 20:00 21.1° C wolkenlos
Mo, 22.04. 14:00 24.0° C wolkenlos
Mo, 22.04. 8:00 2.8° C wolkenlos
Ortszeit Temperatur Wetter
Mi, 24.04. 6:30 6.9° C fast wolkenlos
Mi, 24.04. 6:20 6.9° C fast wolkenlos
Mi, 24.04. 6:10 7.7° C leicht bewölkt
Mi, 24.04. 6:00 7.1° C bedeckt
Mi, 24.04. 5:50 7.1° C bedeckt
Mi, 24.04. 5:40 7.0° C bedeckt
Mi, 24.04. 5:30 6.3° C wolkig
Mi, 24.04. 5:00 5.5° C leicht bewölkt
Mi, 24.04. 4:30 6.3° C bewölkt
Mi, 24.04. 4:00 6.0° C wolkenlos
Mi, 24.04. 3:30 6.3° C wolkenlos
Ortszeit Relative Feuchte Sichtweite
Mi, 24.04. 2:00 91% 20 km
Di, 23.04. 20:00 48% 35 km
Di, 23.04. 14:00 41% 35 km
Di, 23.04. 8:00 58% 35 km
Di, 23.04. 2:00 41% 60 km
Mo, 22.04. 20:00 24% 70 km
Mo, 22.04. 14:00 24% 45 km
Mo, 22.04. 8:00 90% 29 km
Ortszeit Relative Feuchte Sichtweite
Mi, 24.04. 6:30 91% 11 km
Mi, 24.04. 6:20 91% -
Mi, 24.04. 6:10 90% -
Mi, 24.04. 6:00 93% 13 km
Mi, 24.04. 5:50 93% -
Mi, 24.04. 5:40 93% -
Mi, 24.04. 5:30 96% 10 km
Mi, 24.04. 5:00 95% 9 km
Mi, 24.04. 4:30 95% 10 km
Mi, 24.04. 4:00 93% 11 km
Mi, 24.04. 3:30 95% 12 km
Ortszeit Niederschlagsmenge Niederschlagsart
Mi, 24.04. 2:00 0.0 l/m2 in 6 Std. -
Di, 23.04. 20:00 0.0 l/m2 in 12 Std. -
Di, 23.04. 14:00 0.0 l/m2 in 6 Std. -
Di, 23.04. 8:00 0.0 l/m2 in 12 Std. -
Di, 23.04. 2:00 0.0 l/m2 in 6 Std. -
Mo, 22.04. 20:00 0.0 l/m2 in 12 Std. -
Mo, 22.04. 14:00 0.0 l/m2 in 6 Std. -
Mo, 22.04. 8:00 0.0 l/m2 in 12 Std. -
Ortszeit Niederschlagsmenge Niederschlagsart
Mi, 24.04. 6:30 0.0 l/m2 in 1 Std. -
Mi, 24.04. 6:20 keine Meldung -
Mi, 24.04. 6:10 keine Meldung -
Mi, 24.04. 6:00 0.0 l/m2 in 1 Std. -
Mi, 24.04. 5:50 keine Meldung -
Mi, 24.04. 5:40 keine Meldung -
Mi, 24.04. 5:30 0.0 l/m2 in 1 Std. -
Mi, 24.04. 5:00 0.0 l/m2 in 1 Std. -
Mi, 24.04. 4:30 0.0 l/m2 in 1 Std. -
Mi, 24.04. 4:00 0.0 l/m2 in 1 Std. -
Mi, 24.04. 3:30 0.0 l/m2 in 1 Std. -
Ortszeit Stärke Spitze Richtung
km/h Bft. km/h Grad Sektor
Mi, 24.04. 2:00 0 0 7 - -
Di, 23.04. 20:00 7 2 18 50° NO
Di, 23.04. 14:00 4 1 29 180° S
Di, 23.04. 8:00 9 2 28 80° O
Di, 23.04. 2:00 19 3 31 70° O
Mo, 22.04. 20:00 13 3 37 70° O
Mo, 22.04. 14:00 14 3 40 110° O
Mo, 22.04. 8:00 0 0 7 - -
Ortszeit Stärke Spitze Richtung
km/h Bft. km/h Grad Sektor
Mi, 24.04. 6:30 4 1 14 60° NO
Mi, 24.04. 6:20 4 1 - 60° NO
Mi, 24.04. 6:10 4 1 - 300° NW
Mi, 24.04. 6:00 4 1 14 100° O
Mi, 24.04. 5:50 4 1 - 100° O
Mi, 24.04. 5:40 4 1 - 130° SO
Mi, 24.04. 5:30 2 1 11 160° S
Mi, 24.04. 5:00 4 1 7 100° O
Mi, 24.04. 4:30 0 0 7 - -
Mi, 24.04. 4:00 4 1 14 280° W
Mi, 24.04. 3:30 0 0 14 - -
Ortszeit Untergrenze Bedeckung Gattung
total tief tief mittel hoch
Mi, 24.04. 2:00 - 0/8 0/8 - - -
Di, 23.04. 20:00 4200 m 2/8 2/8 - - -
Di, 23.04. 14:00 4800 m 7/8 7/8 - - -
Di, 23.04. 8:00 - 0/8 0/8 - - -
Di, 23.04. 2:00 8700 m 8/8 0/8 - - -
Mo, 22.04. 20:00 - 0/8 0/8 - - -
Mo, 22.04. 14:00 - 0/8 0/8 - - -
Mo, 22.04. 8:00 - 0/8 0/8 - - -
Ortszeit Bedeckungsgrad in Achtel und Wolkenuntergrenze
Mi, 24.04. 6:30 1(5100m)
Mi, 24.04. 6:20 1(5100m)
Mi, 24.04. 6:10 2(4200m) 3(5100m)
Mi, 24.04. 6:00 8(4200m) 8(5100m)
Mi, 24.04. 5:50 8(4200m) 8(5100m)
Mi, 24.04. 5:40 8(4200m) 8(5100m)
Mi, 24.04. 5:30 6(4200m)
Mi, 24.04. 5:00 2(4800m)
Mi, 24.04. 4:30 7(4800m)
Mi, 24.04. 4:00 2(5100m)
Mi, 24.04. 3:30 keine Wolken
Ortszeit Luftdruck NN (hPa) Tendenz (hPa in 3 Std.)
Mi, 24.04. 2:00 1000 + 0,8
Di, 23.04. 20:00 997 - 0,4
Di, 23.04. 14:00 998 - 0,1
Di, 23.04. 8:00 999 - 0,7
Di, 23.04. 2:00 1001 - 1,4
Mo, 22.04. 20:00 1002 - 1,2
Mo, 22.04. 14:00 1006 - 2,7
Mo, 22.04. 8:00 1013 - 1,1
Ortszeit Luftdruck NN (hPa) Tendenz (hPa in 3 Std.)
Mi, 24.04. 6:30 1002 + 1,4
Mi, 24.04. 6:20 1002 keine Meldung
Mi, 24.04. 6:10 1002 keine Meldung
Mi, 24.04. 6:00 1001 + 1,0
Mi, 24.04. 5:50 1001 keine Meldung
Mi, 24.04. 5:40 1001 keine Meldung
Mi, 24.04. 5:30 1001 + 0,8
Mi, 24.04. 5:00 1001 + 0,7
Mi, 24.04. 4:30 1001 + 0,7
Mi, 24.04. 4:00 1001 + 0,7
Mi, 24.04. 3:30 1000 + 0,6
Ortszeit Schneehöhe (cm)
Mi, 24.04. 2:00 0
Di, 23.04. 20:00 0
Di, 23.04. 14:00 0
Di, 23.04. 8:00 0
Di, 23.04. 2:00 0
Mo, 22.04. 20:00 0
Mo, 22.04. 14:00 0
Mo, 22.04. 8:00 0
Ortszeit Schneehöhe (cm)
Mi, 24.04. 6:30 0
Mi, 24.04. 6:20 0
Mi, 24.04. 6:10 0
Mi, 24.04. 6:00 0
Mi, 24.04. 5:50 0
Mi, 24.04. 5:40 0
Mi, 24.04. 5:30 0
Mi, 24.04. 5:00 0
Mi, 24.04. 4:30 0
Mi, 24.04. 4:00 0
Mi, 24.04. 3:30 0
Link zu dieser Seite / Seite empfehlen

Das Wetter in ...